Location: Molino di Ancona
(43.6167°N, 13.3667°E)
Time: 09:53:39
(UTC+00:00)

BREEZE-M DEB (TANK) - Pass Details

Date: 15 December 2019
Orbit: 297 x 14274 km, 49.6° (Epoch: 27 January)

Event Time Altitude Azimuth Distance (km) Brightness Sun altitude
Exits shadow 03:21:49 75° 48° (NE) 1,174 4.1 -33.5°
Drops below altitude 10° 03:25:33 10° 62° (ENE) 2,100 6.2 -32.8°
Sets 03:26:55 0° 63° (ENE) 2,698 7.0 -32.6°
